Regional Weather Roundup
Issued by NWS

Home | Current Version | Previous Version | Graphics & Text | Print | Product List | Glossary On
Versions: 1 2 3 4 5 6 7 8 9 10 11 12 13 14 15 16 17 18 19 20 21 22 23 24 25 26 27 28 29 30 31 32 33 34 35 36 37 38 39 40 41 42 43 44 45 46 47 48 49 50
000
ASUS44 KMEG 280210
RWRTN
TENNESSEE HOURLY STATE WEATHER ROUNDUP
NATIONAL WEATHER SERVICE MEMPHIS TN
900 PM CDT SAT MAY 27 2017

TNZ002-004-019-021-049-052-054-088>092-280300-
WEST TENNESSEE

CITY           SKY/WX    TMP DP  RH WIND       PRES   REMARKS
MEMPHIS INTL   CLOUDY    84  73  69 S8        29.83S HX  90
NWS MEMPHIS      N/A     83 N/A N/A MISG        N/A
JACKSON        LGT RAIN  66  64  93 CALM      29.89S FOG
DYERSBURG        N/A    N/A N/A N/A MISG        N/A
COVINGTON      CLOUDY    72  63  73 E25       29.85R
UNION CITY     CLOUDY    64  63  94 E8        29.87F
BOLIVAR        MOCLDY    79  73  83 CALM      29.85F
PARIS          MOCLDY    63  61  94 E3        29.87F
HUNTINGDON     MOCLDY    64  63  94 E5        29.89F
LEXINGTON      FOG       63  61  94 MISG      29.90F VSB 1
SELMER         MOCLDY    77  73  88 S6        29.87F
SAVANNAH       CLOUDY    79  73  83 S5        29.87F
$$

TNZ008-025-027-028-033-062-065-066-280300-
NORTH MIDDLE TENNESSEE

CITY           SKY/WX    TMP DP  RH WIND       PRES   REMARKS
NASHVILLE      TSTM      66  63  90 N6        29.97R
PORTLAND       CLOUDY    66  63  88 NW6G13    29.97R
CLARKSVILLE    CLOUDY    65  61  87 SW7       29.87F
SMYRNA         LGT RAIN  66  64  93 NW20G32   29.97R
COOKEVILLE       N/A     64  63  94 N8G16     29.97R
GALLATIN       CLOUDY    66  63  88 NW6G12    30.00R
CROSSVILLE     RAIN      62  60  93 N13G31    30.06R FOG
$$

TNZ061-075-076-078-094-096-097-280300-
SOUTH MIDDLE TENNESSEE

CITY           SKY/WX    TMP DP  RH WIND       PRES   REMARKS
FAYETTEVILLE   CLOUDY    77  72  83 CALM      29.91F
TULLAHOMA        N/A     75  70  83 NW12      29.94R
WINCHESTER     MOCLDY    75  70  83 CALM        N/A
MCMINNVILLE    CLOUDY    64  64 100 N5        29.99R
COLUMBIA       FOG       66  63  88 NW16G55   29.98R VSB 1/4
SHELBYVILLE    CLOUDY    66  63  88 N12G18    29.95R FOG
$$

TNZ017-018-042-046-047-280300-
NORTHEAST TENNESSEE

CITY           SKY/WX    TMP DP  RH WIND       PRES   REMARKS
TRI CITIES     TSTM      65  62  90 N17G23    30.00R FOG
ELIZABETHTON   CLOUDY    64  63  94 NE5       29.96R FOG
$$

TNZ012-013-036-069-073-074-280300-
CENTRAL EAST TENNESSEE

CITY           SKY/WX    TMP DP  RH WIND       PRES   REMARKS
KNOXVILLE      CLOUDY    76  66  71 S9        29.89R
OAK RIDGE      CLOUDY    75  69  81 CALM      29.90S
DOWNTOWN KNOXV MOCLDY    77  68  73 W3        29.89F HAZE
GATLINBURG     CLEAR     73  66  78 CALM      29.90R
MORRISTOWN     CLOUDY    75  68  78 SW6       29.90F
JACKSBORO      CLOUDY    72  70  94 VRB5      29.95R FOG
$$

TNZ083-085-099-280300-
SOUTHEAST TENNESSEE

CITY           SKY/WX    TMP DP  RH WIND       PRES   REMARKS
CHATTANOOGA    CLOUDY    78  69  73 S6        29.92R
$$

SKY/WX REPORTED AS FAIR MEANS FEW OR NO CLOUDS BELOW
12 THOUSAND FEET.




USA.gov is the U.S. government's official web portal to all federal, state and local government web resources and services.